This is the latest recevied weather packets stored in our database for station/object K9APR. If no packets are shown the sender has not sent any weather packets the latest 10 day(s).
| Time | Temp. | Humidity | Pressure | Rain* | Wind** | Luminosity | Snow |
|---|---|---|---|---|---|---|---|
| 1778189003 | 15° C | 44% | 1014.8 hPa | 0 mm | - | - | - |
| 1778188463 | 15° C | 43% | 1014.7 hPa | 0 mm | - | - | - |
| 1778187924 | 14.44° C | 42% | 1014.9 hPa | 0 mm | - | - | - |
| 1778187384 | 15° C | 45% | 1015 hPa | 0 mm | - | - | - |
| 1778186843 | 14.44° C | 46% | 1015 hPa | 0 mm | - | - | - |
| 1778186303 | 15° C | 42% | 1015.1 hPa | 0 mm | - | - | - |
| 1778185762 | 14.44° C | 46% | 1015.1 hPa | 0 mm | - | - | - |
| 1778185224 | 14.44° C | 44% | 1015.1 hPa | 0 mm | - | - | - |
| 1778184144 | 14.44° C | 45% | 1015.3 hPa | 0 mm | - | - | - |
| 1778184143 | 14.44° C | 45% | 1015.3 hPa | 0 mm | - | - | - |
| 1778183602 | 14.44° C | 43% | 1015.3 hPa | 0 mm | - | - | - |
| 1778183064 | 14.44° C | 45% | 1015.4 hPa | 0 mm | - | - | - |
| 1778182524 | 14.44° C | 45% | 1015.3 hPa | 0 mm | - | - | - |
| 1778181984 | 14.44° C | 47% | 1015.3 hPa | 0 mm | - | - | - |
| 1778181444 | 14.44° C | 49% | 1015.5 hPa | 0 mm | - | - | - |
| 1778180902 | 14.44° C | 43% | 1015.6 hPa | 0 mm | - | - | - |
| 1778180363 | 14.44° C | 47% | 1015.5 hPa | 0 mm | - | - | - |
| 1778179823 | 14.44° C | 45% | 1015.4 hPa | 0 mm | - | - | - |
| 1778179283 | 14.44° C | 53% | 1015.5 hPa | 0 mm | - | - | - |
| 1778178744 | 13.89° C | 50% | 1015.5 hPa | 0 mm | - | - | - |
| 1778178204 | 13.33° C | 51% | 1015.7 hPa | 0 mm | - | - | - |
| 1778177663 | 13.33° C | 45% | 1015.8 hPa | 0 mm | - | - | - |
| 1778177124 | 13.33° C | 47% | 1015.8 hPa | 0 mm | - | - | - |
| 1778176584 | 13.89° C | 51% | 1015.8 hPa | 0 mm | - | - | - |
| 1778176042 | 13.33° C | 52% | 1015.9 hPa | 0 mm | - | - | - |
* Rain latest hour (hover to see other rain measurements)
** Current wind speed in m/s (hover to see current wind gust speed)